Location: Holbach
(51.5399°N, 10.6036°E)
Time: 05:52:34
(UTC+00:00)

Cosmos 1655 Rocket - Pass Details

Date: 18 September 2020
Orbit: 971 x 1006 km, 82.9° (Epoch: 19 October)

Event Time Altitude Azimuth Distance (km) Brightness Sun altitude
Rises 21:03:36 0° 347° (NNW) 3,685 7.9 -30.5°
Reaches altitude 10° 21:06:08 10° 344° (NNW) 2,737 7.1 -30.8°
Maximum altitude 21:12:17 61° 267° (W) 1,111 4.3 -31.3°
Enters shadow 21:12:32 60° 256° (WSW) 1,115 4.2 -31.4°
